{"data":{"norad_id":55783,"epoch":"2026-09-20T22:00:03.000096Z","epoch_age_seconds":67093,"freshness":"FRESH","line1":"1 55783U 23028AU  26263.91670139  .00079219  00000+0  51410-2 0  9998","line2":"2 55783  70.0014  72.2927 0003472 238.9747 267.4960 15.07616305  5729","mean_motion":15.07616305,"eccentricity":0.0003472,"inclination_deg":70.0014,"raan_deg":72.2927,"arg_perigee_deg":238.9747,"mean_anomaly_deg":267.496,"bstar":0.005141,"rev_number":572,"period_min":95.515018988867,"perigee_km":541.08307716239,"apogee_km":545.88945235744,"semimajor_km":6921.6232647599,"source":"CELESTRAK","updated_at":"2026-09-21T09:00:33.319880Z"}}